EZY45ZD EGJJ-EGKK

Flight info

Callsign EZY45ZD
Flight time 0h 38m
Altitude 23000
Route ORIST L982 VASUX
Aircraft A320/M-SDE2E3FGHIJ1RWXYZ/LB1

Departure

Time 2026-05-04 07:34
Airport Jersey Airport (EGJJ)

Arrival

Time 2026-05-04 08:12
Airport London Gatwick Airport (EGKK)
Time Latitude Longitude Altitude Speed Heading
2026-05-04 07:10 49.20547 -2.19860 281 ft 0 kts 176°
2026-05-04 07:27 49.20564 -2.19862 282 ft 2 kts 176°
2026-05-04 07:27 49.20581 -2.19869 288 ft 3 kts 139°
2026-05-04 07:27 49.20592 -2.19890 283 ft 3 kts 101°
2026-05-04 07:28 49.20593 -2.19909 283 ft 3 kts 75°
2026-05-04 07:28 49.20589 -2.19926 284 ft 0 kts 49°
2026-05-04 07:30 49.20589 -2.19925 284 ft 1 kts 49°
2026-05-04 07:31 49.20588 -2.19906 289 ft 3 kts 129°
2026-05-04 07:31 49.20537 -2.19916 283 ft 9 kts 198°
2026-05-04 07:33 49.20710 -2.20607 279 ft 0 kts 86°
2026-05-04 07:33 49.20713 -2.20555 280 ft 30 kts 84°
2026-05-04 07:34 49.20779 -2.19797 284 ft 109 kts 84°
2026-05-04 07:34 49.20909 -2.18345 412 ft 154 kts 80°
2026-05-04 07:34 49.21028 -2.16689 1154 ft 159 kts 83°
2026-05-04 07:34 49.21139 -2.15005 1935 ft 158 kts 83°
2026-05-04 07:35 49.21252 -2.13361 2657 ft 153 kts 84°
2026-05-04 07:35 49.21365 -2.11748 3270 ft 156 kts 84°
2026-05-04 07:35 49.21495 -2.10040 3727 ft 168 kts 84°
2026-05-04 07:35 49.21661 -2.08187 4137 ft 183 kts 83°
2026-05-04 07:36 49.21987 -2.06240 4553 ft 198 kts 60°
2026-05-04 07:36 49.23030 -2.04767 4910 ft 216 kts 21°
2026-05-04 07:38 49.35135 -2.03934 9245 ft 293 kts
2026-05-04 07:38 49.37190 -2.03830 10075 ft 298 kts
2026-05-04 07:38 49.39303 -2.03720 10850 ft 302 kts
2026-05-04 07:38 49.41400 -2.03608 11591 ft 308 kts
2026-05-04 07:39 49.43558 -2.03495 12335 ft 313 kts
2026-05-04 07:39 49.45756 -2.03379 13078 ft 318 kts
2026-05-04 07:39 49.47989 -2.03260 13810 ft 324 kts
2026-05-04 07:39 49.50255 -2.03133 14476 ft 328 kts
2026-05-04 07:40 49.52542 -2.03006 15173 ft 331 kts
2026-05-04 07:40 49.54851 -2.02886 15871 ft 334 kts
2026-05-04 07:40 49.57181 -2.02768 16560 ft 337 kts
2026-05-04 07:40 49.59533 -2.02650 17249 ft 340 kts
2026-05-04 07:41 49.61905 -2.02530 17937 ft 343 kts
2026-05-04 07:41 49.64300 -2.02409 18570 ft 346 kts
2026-05-04 07:41 49.66719 -2.02280 19151 ft 349 kts
2026-05-04 07:41 49.69156 -2.02147 19724 ft 352 kts
2026-05-04 07:42 49.71616 -2.02014 20290 ft 356 kts
2026-05-04 07:42 49.74102 -2.01881 20857 ft 359 kts
2026-05-04 07:42 49.76607 -2.01721 21409 ft 362 kts
2026-05-04 07:42 49.79093 -2.00977 21962 ft 366 kts 17°
2026-05-04 07:43 49.81485 -1.99458 22176 ft 379 kts 28°
2026-05-04 07:43 49.83860 -1.97528 22315 ft 394 kts 28°
2026-05-04 07:43 49.86331 -1.95525 22482 ft 406 kts 28°
2026-05-04 07:43 49.88829 -1.93505 22859 ft 412 kts 28°
2026-05-04 07:44 49.91369 -1.91456 22983 ft 409 kts 28°
2026-05-04 07:44 49.93842 -1.89466 23009 ft 391 kts 28°
2026-05-04 07:44 49.96240 -1.87534 23006 ft 389 kts 28°
2026-05-04 07:44 49.98639 -1.85594 23008 ft 389 kts 28°
2026-05-04 07:45 50.01036 -1.83655 23007 ft 389 kts 28°
2026-05-04 07:45 50.03437 -1.81736 23007 ft 389 kts 27°
2026-05-04 07:45 50.05849 -1.79828 23007 ft 389 kts 27°
2026-05-04 07:45 50.08269 -1.77924 23008 ft 388 kts 27°
2026-05-04 07:46 50.10678 -1.76029 23008 ft 388 kts 27°
2026-05-04 07:46 50.12989 -1.73864 23008 ft 387 kts 38°
2026-05-04 07:46 50.15078 -1.71226 23006 ft 387 kts 41°
2026-05-04 07:46 50.17143 -1.68543 23005 ft 387 kts 41°
2026-05-04 07:47 50.19209 -1.65858 23004 ft 387 kts 41°
2026-05-04 07:47 50.21277 -1.63173 23004 ft 387 kts 41°
2026-05-04 07:47 50.23350 -1.60477 23003 ft 387 kts 41°
2026-05-04 07:49 50.37822 -1.41704 23008 ft 387 kts 40°
2026-05-04 07:49 50.39891 -1.39009 23008 ft 391 kts 40°
2026-05-04 07:49 50.42009 -1.36250 23009 ft 396 kts 40°
2026-05-04 07:50 50.44132 -1.33483 23008 ft 397 kts 40°
2026-05-04 07:50 50.46253 -1.30718 23006 ft 397 kts 40°
2026-05-04 07:50 50.48374 -1.27941 23005 ft 397 kts 40°
2026-05-04 07:50 50.50492 -1.25161 23008 ft 397 kts 40°
2026-05-04 07:51 50.52611 -1.22374 23008 ft 397 kts 40°
2026-05-04 07:51 50.54728 -1.19589 23007 ft 397 kts 40°
2026-05-04 07:51 50.56847 -1.16809 23007 ft 397 kts 40°
2026-05-04 07:51 50.58970 -1.14029 23005 ft 397 kts 40°
2026-05-04 07:52 50.61091 -1.11243 23006 ft 397 kts 40°
2026-05-04 07:52 50.63185 -1.08479 22691 ft 398 kts 40°
2026-05-04 07:52 50.65294 -1.05671 22118 ft 396 kts 43°
2026-05-04 07:52 50.67142 -1.02492 21560 ft 393 kts 52°
2026-05-04 07:53 50.68876 -0.99158 21015 ft 392 kts 52°
2026-05-04 07:54 50.80624 -0.75949 17391 ft 380 kts 64°
2026-05-04 07:55 50.81514 -0.72072 16857 ft 375 kts 80°
2026-05-04 07:55 50.81990 -0.68031 16336 ft 373 kts 81°
2026-05-04 07:55 50.82458 -0.64005 15829 ft 371 kts 81°
2026-05-04 07:55 50.82923 -0.59998 15336 ft 370 kts 81°
2026-05-04 07:56 50.83264 -0.57049 14973 ft 369 kts 81°
2026-05-04 07:56 50.83721 -0.53074 14494 ft 367 kts 81°
2026-05-04 07:56 50.84178 -0.49111 14027 ft 365 kts 81°
2026-05-04 07:56 50.84629 -0.45201 13723 ft 358 kts 81°
2026-05-04 07:57 50.85072 -0.41359 13385 ft 352 kts 81°
2026-05-04 07:57 50.85505 -0.37589 13058 ft 345 kts 81°
2026-05-04 07:57 50.85930 -0.33875 12737 ft 339 kts 81°
2026-05-04 07:57 50.86346 -0.30235 12425 ft 333 kts 81°
2026-05-04 07:58 50.86753 -0.26656 12129 ft 328 kts 81°
2026-05-04 07:58 50.87150 -0.23127 11824 ft 323 kts 81°
2026-05-04 07:58 50.87538 -0.19655 11542 ft 318 kts 81°
2026-05-04 07:58 50.87919 -0.16232 11267 ft 313 kts 81°
2026-05-04 07:59 50.88293 -0.12858 10985 ft 309 kts 81°
2026-05-04 07:59 50.88662 -0.09546 10751 ft 303 kts 81°
2026-05-04 07:59 50.89142 -0.06655 10580 ft 296 kts 63°
2026-05-04 07:59 50.90423 -0.04326 10392 ft 288 kts 31°
2026-05-04 08:00 50.92308 -0.03450 10205 ft 277 kts 355°
2026-05-04 08:00 50.94049 -0.04335 10033 ft 264 kts 321°
2026-05-04 08:00 50.95184 -0.06525 9707 ft 257 kts 297°
2026-05-04 08:02 50.92493 -0.18129 7685 ft 243 kts 150°
2026-05-04 08:02 50.91277 -0.16293 7450 ft 245 kts 122°
2026-05-04 08:02 50.90743 -0.13760 7213 ft 245 kts 94°
2026-05-04 08:03 50.91010 -0.11112 6972 ft 246 kts 66°
2026-05-04 08:03 50.92007 -0.08915 6734 ft 247 kts 46°
2026-05-04 08:03 50.93123 -0.06868 6499 ft 246 kts 52°
2026-05-04 08:03 50.94142 -0.04707 6246 ft 244 kts 54°
2026-05-04 08:04 50.95131 -0.02525 6012 ft 243 kts 54°
2026-05-04 08:04 50.96117 -0.00353 5747 ft 242 kts 54°
2026-05-04 08:04 50.97106 0.01797 5503 ft 241 kts 54°
2026-05-04 08:04 50.98097 0.03932 5267 ft 239 kts 53°
2026-05-04 08:05 50.99088 0.06044 5037 ft 238 kts 53°
2026-05-04 08:05 51.00081 0.08140 4800 ft 237 kts 51°
2026-05-04 08:05 51.01236 0.09937 4566 ft 235 kts 36°
2026-05-04 08:05 51.02651 0.11204 4333 ft 234 kts 21°
2026-05-04 08:06 51.04236 0.11848 4090 ft 232 kts
2026-05-04 08:06 51.05826 0.11999 3868 ft 231 kts
2026-05-04 08:06 51.07423 0.12142 3640 ft 229 kts
2026-05-04 08:06 51.08994 0.12291 3423 ft 224 kts
2026-05-04 08:08 51.16711 0.05377 2084 ft 203 kts 281°
2026-05-04 08:08 51.16952 0.03216 2017 ft 192 kts 281°
2026-05-04 08:10 51.16101 -0.09588 1200 ft 145 kts 259°
2026-05-04 08:11 51.15881 -0.11142 1014 ft 144 kts 259°
2026-05-04 08:11 51.15473 -0.14209 624 ft 140 kts 260°
2026-05-04 08:11 51.15277 -0.15685 416 ft 138 kts 260°
2026-05-04 08:12 51.15074 -0.17178 246 ft 137 kts 260°
2026-05-04 08:12 51.14893 -0.18569 209 ft 107 kts 248°
2026-05-04 08:12 51.14759 -0.19450 209 ft 55 kts 260°
2026-05-04 08:12 51.14702 -0.19904 208 ft 37 kts 269°
2026-05-04 08:13 51.14741 -0.20284 210 ft 27 kts 281°